Location: Newark
(33.4133°N, 82.3847°W)
Time: 23:21:34
(UTC+00:00)

Hubble Space Telescope - Pass Details

Date: 04 February 2020
Orbit: 536 x 540 km, 28.5° (Epoch: 20 February)

Event Time Altitude Azimuth Distance (km) Brightness Sun altitude
Exits shadow 09:30:51 10° 106° (ESE) 1,755 4.1 -36.3°
Drops below altitude 10° 09:31:00 10° 105° (ESE) 1,803 4.1 -36.3°
Sets 09:33:21 0° 95° (E) 2,669 5.3 -35.8°
